Terminal Aerodrome Forecast
Issued by NWS Tulsa, OK

Home | Current Version | Previous Version | Text Only | Print | Product List | Glossary On
Versions: 1 2 3 4 5 6 7 8 9 10 11 12 13 14 15 16 17 18 19 20 21
000
FTUS44 KTSA 202000 AAA
TAFFSM
TAF AMD
KFSM 202036Z 2021/2118 03005KT 3SM HZ FEW013 OVC035
     FM210200 00000KT P6SM OVC015
     FM210700 08003KT 4SM BR OVC008=

USA.gov is the U.S. government's official web portal to all federal, state and local government web resources and services.